Regional Weather Roundup
Issued by NWS

Home | Current Version | Previous Version | Graphics & Text | Print | Product List | Glossary On
Versions: 1 2 3 4 5 6 7 8 9 10 11 12 13 14 15 16 17 18 19 20 21 22 23 24 25 26 27 28 29 30 31 32 33 34 35 36 37 38 39 40 41 42 43 44 45 46 47 48 49 50
000
ASUS43 KOAX 280902
RWRNE

WEATHER ROUNDUP FOR NEBRASKA
NATIONAL WEATHER SERVICE OMAHA NE
400 AM CDT FRI AUG 28 2015

NOTES: SATELLITE DATA IS BEING USED TO AUGMENT CLOUD COVER ABOVE
       12000 FEET.
       "FAIR" INDICATES FEW OR NO CLOUDS BELOW 12,000 FEET WITH NO
       SIGNIFICANT WEATHER AND/OR OBSTRUCTIONS TO VISIBILITY.

  * THESE STATIONS DO NOT REPORT WEATHER SUCH AS RAIN...SNOW OR FOG.

NEZ001>004-019>022-054>056-281000-
NEBRASKA PANHANDLE

CITY           SKY/WX    TMP DP  RH WIND       PRES   REMARKS
SCOTTSBLUFF    PTCLDY    59  56  89 W6        30.07S
ALLIANCE       CLEAR     52  50  93 W6        30.04S
CHADRON        PTCLDY    54  52  93 SW5       30.01S
KIMBALL        MOCLDY    62  53  72 W13       30.11F
SIDNEY         PTCLDY    58  54  86 NW9       30.09R
$$

NEZ057>060-069>072-079>082-281000-
SOUTHWEST NEBRASKA

CITY           SKY/WX    TMP DP  RH WIND       PRES   REMARKS
NORTH PLATTE   CLEAR     63  61  93 NW6       29.94R
IMPERIAL       CLEAR     62  57  83 W9        29.99S
LEXINGTON      CLEAR     69  68  94 W10       29.88S
MC COOK        CLEAR     67  62  84 NW12      29.93S
OGALLALA       PTCLDY    62  59  91 NW9       29.99F
$$

NEZ005>010-023>029-035>040-094-281000-
NORTH CENTRAL NEBRASKA

CITY           SKY/WX    TMP DP  RH WIND       PRES   REMARKS
AINSWORTH      RAIN      68  67  98 NW6       29.90F
BROKEN BOW     CLOUDY    71  68  90 NW8       29.87S
O`NEILL        CLOUDY    67  66  96 NE6       29.86S
ORD            MOCLDY    66  65  96 NW8       29.83S
THEDFORD       CLOUDY    67  65  93 W9        29.94F
$$

NEZ041-046>049-061>064-073>077-083>087-281000-
SOUTH CENTRAL NEBRASKA

CITY           SKY/WX    TMP DP  RH WIND       PRES   REMARKS
GRAND ISLAND   CLEAR     70  66  87 S7        29.82F
AURORA         MOCLDY    70  69  95 CALM      29.82S
HASTINGS       PTCLDY    71  67  87 SW10      29.82F
HEBRON         PTCLDY    73  65  76 S18G24    29.82F
HOLDREGE       PTCLDY    67  65  93 W6        29.86S
KEARNEY *      MOCLDY    66  63  88 W6        29.84F
YORK           CLOUDY    72  68  88 SW5       29.83S
$$

NEZ011>018-030>034-042>045-281000-
NORTHEAST NEBRASKA

CITY           SKY/WX    TMP DP  RH WIND       PRES   REMARKS
NORFOLK        CLOUDY    68  66  93 SE10      29.81F
ALBION         CLOUDY    67  65  93 S3        29.82S
BLAIR          RAIN      67  64  90 SE10G18   29.84F
COLUMBUS *     CLOUDY   N/A N/A N/A SE6       29.82F
FREMONT        RAIN      69  67  92 SE15G24   29.82F
TEKAMAH        HVY RAIN  68  67  96 SE9G18    29.83F FOG
$$

NEZ050>053-065>068-078-088>093-281000-
SOUTHEAST NEBRASKA

CITY           SKY/WX    TMP DP  RH WIND       PRES   REMARKS
LINCOLN        CLOUDY    71  68  90 S12       29.83F
OMAHA EPPLEY   TSTM      68  66  93 SE26G36   29.85F
BEATRICE       CLOUDY    74  65  73 S22G31    29.85S
FALLS CITY     CLOUDY    69  65  86 SE8       29.91S
NEBRASKA CITY  LGT RAIN  68  67  98 SE12      29.91F
PLATTSMOUTH    LGT RAIN  67  65  94 SE20      29.87F
$$

NEZ044-045-051>053-067-281000-
OMAHA AREA

CITY           SKY/WX    TMP DP  RH WIND       PRES   REMARKS
EPPLEY FIELD   TSTM      68  66  93 SE26G36   29.85F
BLAIR          RAIN      67  64  90 SE10G18   29.84F
FREMONT        RAIN      69  67  92 SE15G24   29.82F
MILLARD        CLOUDY    69  66  91 SE15G25   29.84F
OFFUTT AFB     CLOUDY    67  67 100 SE21G32   29.83F
PLATTSMOUTH    LGT RAIN  67  65  94 SE20      29.87F
WAHOO          LGT RAIN  69  67  94 SE17      29.83S
$$


USA.gov is the U.S. government's official web portal to all federal, state and local government web resources and services.